Miscellaneous Local Product
Issued by NWS Hastings, NE

Home | Current Version | Previous Version | Graphics & Text | Print | Product List | Glossary On
Versions: 1 2 3 4 5 6 7 8 9 10 11 12 13 14 15 16 17 18 19 20 21 22 23 24 25 26 27 28 29 30 31 32 33 34 35 36 37 38 39 40 41 42 43 44 45 46 47 48 49 50
106
AXUS43 KGID 300102
MISGRI

GID CWA HOURLY WEATHER ROUNDUP
NATIONAL WEATHER SERVICE HASTINGS NE
800 PM CDT MON AUG 29 2016

NOTE: "FAIR" INDICATES FEW OR NO CLOUDS BELOW 12,000 FEET WITH NO
SIGNIFICANT WEATHER AND/OR OBSTRUCTIONS TO VISIBILITY.

...SOUTH CENTRAL NEBRASKA...

CITY           SKY/WX    TMP DP  RH WIND       PRES   REMARKS
GRAND ISLAND   CLOUDY    74  63  68 SE6       30.20R
HASTINGS       LGT RAIN  70  67  90 S5        30.20F
KEARNEY        MOCLDY    73  63  68 SE9       30.18F
ORD            MOCLDY    78  64  61 SE3       30.16F
YORK           CLOUDY    72  68  88 SE8       30.21R
AURORA         DRIZZLE   70  69  97 NE3       30.20R
LEXINGTON      CLOUDY    76  67  75 SE6       30.20S
HOLDREGE       CLOUDY    75  68  77 SE5       30.20S
HEBRON         CLOUDY    71  66  86 CALM      30.18R

...NEBRASKA PANHANDLE...

CITY           SKY/WX    TMP DP  RH WIND       PRES   REMARKS
CHADRON        MOCLDY    83  56  39 E9        30.21R
ALLIANCE       PTCLDY    71  61  70 CALM      30.23F
SCOTTSBLUFF    CLOUDY    76  59  55 E10       30.23F
SIDNEY         PTCLDY    69  60  73 SE6       30.27F

...WESTERN AND NORTH CENTRAL NEBRASKA...

CITY           SKY/WX    TMP DP  RH WIND       PRES   REMARKS
VALENTINE      CLOUDY    80  61  52 S6        30.17S
AINSWORTH      CLOUDY    74  65  71 S6        30.18S
ONEILL         CLOUDY    78  64  61 SE5       30.17S
BROKEN BOW     PTCLDY    74  67  78 SW5       30.18F
IMPERIAL       PTCLDY    74  61  63 S7        30.22S
NORTH PLATTE   CLOUDY    74  67  78 CALM      30.20S
MCCOOK         MOCLDY    75  65  70 SE5       30.20S

...EASTERN NEBRASKA...

CITY           SKY/WX    TMP DP  RH WIND       PRES   REMARKS
NORFOLK        CLOUDY    73  65  75 S9        30.16S
SO SIOUX CITY  CLOUDY    82  73  74 E6        30.12F
TEKAMAH        LGT RAIN  73  69  87 SE14G22   30.17R
COLUMBUS       CLOUDY    70  61  73 CALM      30.17F
ALBION         CLOUDY    73  65  76 SE5       30.19R
OMAHA EPPLEY   CLOUDY    73  68  84 CALM      30.18R
OFFUTT AFB     TSTM      72  70  93 SW10G24   30.19R
MILLARD        TSTM     N/A N/A N/A S6        30.18R
LINCOLN        CLOUDY    73  68  84 N7        30.17R
NEBRASKA CITY  CLOUDY    76  69  78 NW8       30.16R
BEATRICE       CLOUDY    70  69  95 NW6       30.15S
FALLS CITY     LGT RAIN  80  71  74 CALM      30.11R

...NORTHERN KANSAS...

CITY           SKY/WX    TMP DP  RH WIND       PRES   REMARKS
GOODLAND       CLOUDY    73  61  65 SE6       30.25R
HILL CITY      CLOUDY    72  66  81 SE3       30.19S
NORTON         CLOUDY    73  63  68 NE3       30.19
SMITH CENTER   PTCLDY    70  66  88 CALM      30.18S
BELOIT         CLEAR     66  64  94 CALM      30.15R
HAYS           MOCLDY    70  61  73 CALM      30.16F
RUSSELL        LGT RAIN  69  67  93 S6        30.15S
CONCORDIA      CLOUDY    72  67  84 NW6       30.16R
SALINA         MOCLDY    74  71  91 NW6       30.14R
TOPEKA         PTCLDY    80  73  79 CALM      30.11R



USA.gov is the U.S. government's official web portal to all federal, state and local government web resources and services.